Date,Time,Wetness (Wet Dry or Ice),Wind Speed (m/s),Temperature (C),Humidity (%),Pressure (mb),Radiation (W/m^2)
2019-01-26,21:50:00,DRY,2.20,5.53,13.7,774.00,1.1
2019-01-26,21:55:00,DRY,1.85,5.95,12.0,774.00,0.9
2019-01-26,22:00:00,DRY,1.47,6.20,11.7,774.00,1.3
2019-01-26,22:05:00,DRY,1.45,6.00,12.0,774.00,0.8
2019-01-26,22:10:00,DRY,1.77,5.97,12.0,774.00,0.9
2019-01-26,22:15:00,DRY,1.55,5.85,12.0,774.00,0.9
2019-01-26,22:20:00,DRY,1.43,6.20,10.7,774.00,2.1
2019-01-26,22:25:00,DRY,0.75,6.40,10.0,774.00,1.4
2019-01-26,22:30:00,DRY,1.50,6.50,10.0,774.00,0.8
2019-01-26,22:35:00,DRY,1.10,6.50,10.0,774.00,2.0
2019-01-26,22:40:00,DRY,0.83,6.43,10.0,774.00,1.5
2019-01-26,22:45:00,DRY,0.95,6.40,10.5,774.00,1.0
2019-01-26,22:50:00,DRY,1.10,6.30,10.7,774.00,1.3
2019-01-26,22:55:00,DRY,1.40,6.30,11.0,774.00,0.8
2019-01-26,23:00:00,DRY,0.67,6.37,10.0,774.00,0.9
2019-01-26,23:05:00,DRY,0.60,6.50,9.0,774.00,1.4
2019-01-26,23:10:00,DRY,1.30,6.87,9.0,774.00,1.1
2019-01-26,23:15:00,DRY,1.10,6.70,10.5,774.00,1.9
2019-01-26,23:20:00,DRY,1.20,6.37,10.3,774.00,0.8
2019-01-26,23:25:00,DRY,0.95,6.50,9.0,774.00,1.6
2019-01-26,23:30:00,DRY,0.53,6.77,7.7,774.00,1.4
2019-01-26,23:35:00,DRY,0.75,6.75,9.0,774.00,0.8
2019-01-26,23:40:00,DRY,1.10,5.73,17.0,774.00,1.3
2019-01-26,23:45:00,DRY,0.50,5.35,13.0,774.00,0.9
2019-01-26,23:50:00,DRY,0.83,6.17,11.0,774.00,0.8
2019-01-26,23:55:00,DRY,1.30,6.15,11.0,774.00,1.9
2019-01-27,00:00:00,DRY,1.63,6.03,12.0,774.00,1.0
2019-01-27,00:05:00,DRY,2.05,6.30,11.0,774.00,1.4
2019-01-27,00:10:00,DRY,1.50,5.77,13.0,774.00,1.4
2019-01-27,00:15:00,DRY,0.90,5.55,12.5,774.00,0.0
2019-01-27,00:20:00,DRY,1.43,5.90,12.0,774.00,0.9
2019-01-27,00:25:00,DRY,1.50,6.00,11.5,774.00,0.6
2019-01-27,00:30:00,DRY,1.63,6.17,11.7,774.00,1.1
2019-01-27,00:35:00,DRY,0.70,5.70,12.5,774.00,0.7
2019-01-27,00:40:00,DRY,0.83,5.57,12.3,774.00,1.1
2019-01-27,00:45:00,DRY,0.95,5.60,12.5,774.00,1.5
2019-01-27,00:50:00,DRY,1.17,5.87,11.7,774.33,0.8
2019-01-27,00:55:00,DRY,1.30,6.10,11.0,774.00,2.0
2019-01-27,01:00:00,DRY,1.27,5.97,12.0,774.00,1.3
2019-01-27,01:05:00,DRY,0.85,5.90,12.0,774.00,1.5
2019-01-27,01:10:00,DRY,0.67,6.20,10.0,774.00,1.3
2019-01-27,01:15:00,DRY,0.85,6.45,9.5,774.00,1.6
2019-01-27,01:20:00,DRY,1.03,6.07,11.0,774.00,1.6
2019-01-27,01:25:00,DRY,1.00,5.90,11.0,774.00,1.9
2019-01-27,01:30:00,DRY,0.73,5.77,12.0,774.00,2.2
2019-01-27,01:35:00,DRY,0.70,5.70,12.0,774.00,1.3
2019-01-27,01:40:00,DRY,0.87,5.93,11.0,774.00,1.5
2019-01-27,01:45:00,DRY,0.60,6.25,9.5,774.00,0.7
2019-01-27,01:50:00,DRY,1.20,6.20,9.7,774.00,0.9
2019-01-27,01:55:00,DRY,1.00,6.10,10.0,774.00,1.4
2019-01-27,02:00:00,DRY,1.87,6.10,10.3,774.00,2.1
2019-01-27,02:05:00,DRY,1.25,5.65,12.0,774.00,1.3
2019-01-27,02:10:00,DRY,1.17,5.33,12.7,774.00,1.3
2019-01-27,02:15:00,DRY,1.10,5.40,13.0,774.00,1.7
2019-01-27,02:20:00,DRY,1.30,5.47,13.7,774.00,1.1
2019-01-27,02:25:00,DRY,0.85,5.05,17.5,774.00,0.7
2019-01-27,02:30:00,DRY,1.13,5.13,18.0,774.00,1.4
2019-01-27,02:35:00,DRY,1.05,4.75,23.0,774.00,1.7
2019-01-27,02:40:00,DRY,1.43,4.77,23.7,774.00,0.7
2019-01-27,02:45:00,DRY,1.10,4.65,24.0,774.00,0.8
2019-01-27,02:50:00,DRY,1.13,4.63,24.7,774.00,1.0
2019-01-27,02:55:00,DRY,1.40,4.80,25.0,774.00,1.6
2019-01-27,03:00:00,DRY,1.83,4.50,25.7,774.00,1.5
2019-01-27,03:05:00,DRY,2.10,4.15,27.0,774.00,1.8
2019-01-27,03:10:00,DRY,1.40,4.00,27.0,774.00,1.7
2019-01-27,03:15:00,DRY,0.85,4.30,27.0,774.00,1.1
2019-01-27,03:20:00,DRY,0.77,4.63,22.7,774.00,0.9
2019-01-27,03:25:00,DRY,0.85,5.15,14.5,774.00,1.1
2019-01-27,03:30:00,DRY,0.70,5.50,13.0,774.00,0.5
2019-01-27,03:35:00,DRY,1.60,5.45,14.5,774.00,0.3
2019-01-27,03:40:00,DRY,1.60,5.07,15.0,774.00,0.9
2019-01-27,03:45:00,DRY,1.55,5.05,16.5,774.00,1.5
2019-01-27,03:50:00,DRY,0.93,4.97,15.7,774.00,1.3
2019-01-27,03:55:00,DRY,0.60,4.95,15.5,774.00,0.8
2019-01-27,04:00:00,DRY,1.60,5.57,13.3,774.00,0.7
2019-01-27,04:05:00,DRY,2.90,5.10,14.0,774.00,1.5
2019-01-27,04:10:00,DRY,1.93,4.67,14.7,774.00,1.6
2019-01-27,04:15:00,DRY,0.85,4.65,13.5,774.00,1.0
2019-01-27,04:20:00,DRY,0.77,4.47,13.0,774.00,1.6
2019-01-27,04:25:00,DRY,0.70,4.75,11.5,774.00,1.3
2019-01-27,04:30:00,DRY,0.77,4.93,11.3,774.00,1.4
2019-01-27,04:35:00,DRY,1.40,5.75,10.0,774.00,1.7
2019-01-27,04:40:00,DRY,1.30,5.97,10.0,774.00,1.0
2019-01-27,04:45:00,DRY,1.25,6.15,10.0,774.00,1.1
2019-01-27,04:50:00,DRY,0.47,6.00,11.0,774.00,1.3
2019-01-27,04:55:00,DRY,1.40,5.80,10.5,774.00,0.9
2019-01-27,05:00:00,DRY,2.17,5.43,10.7,774.00,2.2
2019-01-27,05:05:00,DRY,2.10,5.45,9.5,774.00,1.9
2019-01-27,05:10:00,DRY,1.37,5.90,9.0,774.00,1.7
2019-01-27,05:15:00,DRY,1.10,6.00,8.5,774.00,1.6
2019-01-27,05:20:00,DRY,0.47,5.60,9.7,774.00,1.0
2019-01-27,05:25:00,DRY,0.60,5.30,10.0,774.00,0.9
2019-01-27,05:30:00,DRY,0.43,5.20,10.0,774.00,1.1
2019-01-27,05:35:00,DRY,0.40,5.15,10.0,774.00,1.3
2019-01-27,05:40:00,DRY,0.77,5.57,10.0,774.00,1.4
2019-01-27,05:45:00,DRY,1.00,5.70,9.5,774.00,1.4
2019-01-27,05:50:00,DRY,1.83,5.73,9.0,774.00,1.1
2019-01-27,05:55:00,DRY,2.50,6.20,9.0,774.00,0.5
2019-01-27,06:00:00,DRY,2.40,6.47,8.7,774.00,1.0
2019-01-27,06:05:00,DRY,1.30,6.20,8.5,774.00,0.8
2019-01-27,06:10:00,DRY,1.67,5.80,9.7,774.00,1.5
2019-01-27,06:15:00,DRY,0.65,5.50,10.0,774.00,1.4
2019-01-27,06:20:00,DRY,1.13,5.43,10.0,774.00,0.2
2019-01-27,06:25:00,DRY,1.10,5.30,10.5,774.00,1.5
2019-01-27,06:30:00,DRY,1.43,5.43,11.0,774.00,0.9
2019-01-27,06:35:00,DRY,1.85,5.70,11.5,774.00,1.6
2019-01-27,06:40:00,DRY,2.30,5.50,12.3,774.00,2.2
2019-01-27,06:45:00,DRY,2.10,5.40,14.0,774.00,1.4
2019-01-27,06:50:00,DRY,2.13,5.47,13.3,774.00,1.4
2019-01-27,06:55:00,DRY,2.95,5.70,11.5,774.00,1.7
2019-01-27,07:00:00,DRY,2.03,5.70,11.0,774.33,0.8
2019-01-27,07:05:00,DRY,2.70,6.05,10.0,775.00,1.9
2019-01-27,07:10:00,DRY,2.33,6.10,10.0,774.33,1.0
2019-01-27,07:15:00,DRY,3.05,6.05,10.0,774.50,1.6
2019-01-27,07:20:00,DRY,2.60,5.93,10.0,775.00,1.7
2019-01-27,07:25:00,DRY,2.35,6.05,10.0,775.00,1.1
2019-01-27,07:30:00,DRY,2.17,5.90,10.3,775.00,0.9
2019-01-27,07:35:00,DRY,1.80,5.95,10.0,775.00,0.8
2019-01-27,07:40:00,DRY,1.80,6.23,10.0,775.00,0.5
2019-01-27,07:45:00,DRY,1.90,6.00,10.0,775.00,1.2
2019-01-27,07:50:00,DRY,2.53,5.93,10.0,775.00,2.4
2019-01-27,07:55:00,DRY,3.10,6.10,11.0,775.00,3.1
2019-01-27,08:00:00,DRY,1.63,6.10,11.3,775.00,5.2
2019-01-27,08:05:00,DRY,3.20,6.05,11.0,775.00,7.9
2019-01-27,08:10:00,DRY,2.47,5.97,11.3,775.00,10.7
2019-01-27,08:15:00,DRY,2.65,6.05,11.5,775.00,12.7
2019-01-27,08:20:00,DRY,2.70,6.07,11.0,775.00,14.4
2019-01-27,08:25:00,DRY,2.15,6.35,10.0,775.00,16.1
2019-01-27,08:30:00,DRY,1.73,6.30,10.3,775.00,19.2
2019-01-27,08:35:00,DRY,0.85,6.55,9.5,775.00,20.1
2019-01-27,08:40:00,DRY,1.53,6.63,9.7,775.00,106.0
2019-01-27,08:45:00,DRY,0.80,6.85,9.5,775.00,150.8
2019-01-27,08:50:00,DRY,1.70,6.73,10.7,775.00,169.6
2019-01-27,08:55:00,DRY,2.05,6.55,11.5,775.00,188.8
2019-01-27,09:00:00,DRY,1.90,6.43,12.3,775.00,208.5
2019-01-27,09:05:00,DRY,2.40,6.65,11.5,775.00,227.4
2019-01-27,09:10:00,DRY,1.63,6.67,11.7,775.00,246.2
2019-01-27,09:15:00,DRY,1.80,6.80,11.5,775.00,264.7
2019-01-27,09:20:00,DRY,0.80,7.17,11.3,775.00,283.8
2019-01-27,09:25:00,DRY,2.00,7.45,9.5,775.00,302.6
2019-01-27,09:30:00,DRY,0.90,7.70,8.7,775.00,321.6
2019-01-27,09:35:00,DRY,1.90,7.90,8.0,775.00,339.1
2019-01-27,09:40:00,DRY,2.23,8.10,7.0,775.00,358.6
2019-01-27,09:45:00,DRY,1.15,8.10,8.0,775.00,376.8
2019-01-27,09:50:00,DRY,1.10,8.03,8.7,775.00,394.2
2019-01-27,09:55:00,DRY,2.45,7.70,10.0,775.00,411.6
2019-01-27,10:00:00,DRY,1.10,7.57,10.7,775.00,428.8
2019-01-27,10:05:00,DRY,2.55,7.55,11.5,775.00,445.4
2019-01-27,10:10:00,DRY,1.70,7.87,9.7,775.00,463.9
2019-01-27,10:15:00,DRY,1.25,8.15,10.5,775.00,480.1
2019-01-27,10:20:00,DRY,2.83,7.83,12.3,775.00,497.0
2019-01-27,10:25:00,DRY,1.80,7.85,12.0,775.00,511.5
2019-01-27,10:30:00,DRY,2.27,7.60,14.0,775.00,527.1
2019-01-27,10:35:00,DRY,2.70,7.65,15.5,775.50,543.8
2019-01-27,10:40:00,DRY,2.63,7.57,15.7,776.00,557.1
2019-01-27,10:45:00,DRY,2.55,7.70,14.5,776.00,571.3
2019-01-27,10:50:00,DRY,2.60,7.77,11.7,776.00,584.9
2019-01-27,10:55:00,DRY,3.10,7.90,12.5,776.00,598.2
2019-01-27,11:00:00,DRY,2.77,7.97,14.3,776.00,611.7
2019-01-27,11:05:00,DRY,3.40,7.85,14.5,776.00,624.8
2019-01-27,11:10:00,DRY,3.40,8.07,12.0,776.00,636.8
2019-01-27,11:15:00,DRY,2.45,8.25,13.5,776.00,648.2
2019-01-27,11:20:00,DRY,3.30,8.40,13.3,776.00,660.4
2019-01-27,11:25:00,DRY,3.20,8.50,12.5,776.00,670.9
2019-01-27,11:30:00,DRY,3.73,8.40,12.3,776.00,682.6
2019-01-27,11:35:00,DRY,4.00,8.40,12.0,776.00,692.0
2019-01-27,11:40:00,DRY,3.63,8.47,12.3,776.00,701.8
2019-01-27,11:45:00,DRY,4.25,8.50,12.5,776.00,710.2
2019-01-27,11:50:00,DRY,3.73,8.57,12.7,776.00,718.8
2019-01-27,11:55:00,DRY,3.20,8.75,12.5,776.00,726.9
2019-01-27,12:00:00,DRY,3.17,8.80,12.3,776.00,736.1
2019-01-27,12:05:00,DRY,3.85,9.00,12.5,776.00,743.8
2019-01-27,12:10:00,DRY,2.60,9.07,11.3,776.00,751.3
2019-01-27,12:15:00,DRY,2.90,9.00,10.5,776.00,757.6
2019-01-27,12:20:00,DRY,1.93,9.23,10.3,776.00,764.9
2019-01-27,12:25:00,DRY,2.30,9.10,13.5,776.00,769.8
2019-01-27,12:30:00,DRY,2.13,9.07,14.3,776.00,775.9
2019-01-27,12:35:00,DRY,2.50,9.25,16.0,776.00,782.4
2019-01-27,12:40:00,DRY,2.57,8.57,17.3,776.00,784.4
2019-01-27,12:45:00,DRY,3.00,8.40,19.0,776.00,788.5
2019-01-27,12:50:00,DRY,2.70,8.13,20.0,776.00,790.4
2019-01-27,12:55:00,DRY,3.55,8.35,18.5,776.00,795.2
2019-01-27,13:00:00,DRY,3.93,8.03,18.7,776.00,797.6
2019-01-27,13:05:00,DRY,3.70,8.10,19.0,776.00,799.5
2019-01-27,13:10:00,DRY,2.73,8.47,18.7,776.00,801.3
2019-01-27,13:15:00,DRY,3.20,8.75,18.0,776.00,801.3
2019-01-27,13:20:00,DRY,4.13,8.60,16.0,776.00,802.7
2019-01-27,13:25:00,DRY,3.15,8.80,15.0,776.00,802.9
2019-01-27,13:30:00,DRY,4.50,8.80,16.0,776.00,802.3
2019-01-27,13:35:00,DRY,2.90,9.00,15.0,776.00,802.1
2019-01-27,13:40:00,DRY,3.20,9.07,15.7,776.00,802.0
2019-01-27,13:45:00,DRY,2.90,9.00,21.0,776.00,799.3
2019-01-27,13:50:00,DRY,2.57,8.83,20.7,776.00,797.2
2019-01-27,13:55:00,DRY,3.05,8.65,22.0,776.00,794.3
2019-01-27,14:00:00,DRY,2.70,8.90,22.7,776.00,792.5
2019-01-27,14:05:00,DRY,2.40,8.70,21.5,776.00,789.5
2019-01-27,14:10:00,DRY,3.03,8.87,21.3,776.00,785.4
2019-01-27,14:15:00,DRY,2.95,8.75,21.5,776.00,780.6
2019-01-27,14:20:00,DRY,3.23,8.47,28.3,775.67,774.2
2019-01-27,14:25:00,DRY,3.90,8.55,28.0,775.00,769.0
2019-01-27,14:30:00,DRY,3.57,8.23,31.0,775.00,762.8
2019-01-27,14:35:00,DRY,3.55,7.80,47.0,775.00,755.8
2019-01-27,14:40:00,DRY,3.27,7.77,36.3,775.33,748.3
2019-01-27,14:45:00,DRY,3.95,7.70,29.0,775.00,741.8
2019-01-27,14:50:00,DRY,5.23,7.67,28.7,775.00,733.2
2019-01-27,14:55:00,DRY,4.30,7.40,22.5,775.00,724.5
2019-01-27,15:00:00,DRY,4.10,7.43,23.0,775.00,715.5
2019-01-27,15:05:00,DRY,3.60,7.70,25.0,775.00,706.2
2019-01-27,15:10:00,DRY,3.47,7.97,24.0,775.00,697.3
2019-01-27,15:15:00,DRY,3.15,7.80,24.5,775.00,687.2
2019-01-27,15:20:00,DRY,3.47,7.97,22.3,775.00,675.6
2019-01-27,15:25:00,DRY,3.60,8.10,22.0,775.00,663.5
2019-01-27,15:30:00,DRY,4.77,7.80,21.3,775.00,652.4
2019-01-27,15:35:00,DRY,4.20,7.75,22.0,775.00,640.5
2019-01-27,15:40:00,DRY,3.80,8.07,21.3,775.00,628.0
2019-01-27,15:45:00,DRY,4.55,7.95,21.5,775.00,614.5
2019-01-27,15:50:00,DRY,4.93,7.40,21.3,775.00,601.0
2019-01-27,15:55:00,DRY,4.30,7.30,22.0,775.50,586.8
2019-01-27,16:00:00,DRY,5.47,7.30,21.3,775.00,572.6
2019-01-27,16:05:00,DRY,5.00,7.25,22.5,775.00,559.1
2019-01-27,16:10:00,DRY,4.70,7.20,23.0,775.00,543.9
2019-01-27,16:15:00,DRY,5.30,7.20,21.0,775.00,527.6
2019-01-27,16:20:00,DRY,5.23,7.37,20.0,775.00,512.2
2019-01-27,16:25:00,DRY,5.60,7.30,20.0,775.00,496.3
2019-01-27,16:30:00,DRY,5.73,7.17,20.0,775.67,479.6
2019-01-27,16:35:00,DRY,4.95,7.15,19.5,776.00,462.3
2019-01-27,16:40:00,DRY,4.77,7.20,20.0,776.00,445.5
2019-01-27,16:45:00,DRY,4.70,7.10,21.0,776.00,428.6
2019-01-27,16:50:00,DRY,5.23,7.07,20.3,776.00,410.3
2019-01-27,16:55:00,DRY,5.15,7.05,20.0,775.50,393.4
2019-01-27,17:00:00,DRY,4.90,7.00,20.3,776.00,374.0
2019-01-27,17:05:00,DRY,4.40,6.85,21.0,776.00,355.4
2019-01-27,17:10:00,DRY,4.63,6.80,21.0,776.00,337.1
2019-01-27,17:15:00,DRY,4.40,6.75,20.0,776.00,318.1
2019-01-27,17:20:00,DRY,4.37,6.80,20.3,776.00,297.9
2019-01-27,17:25:00,DRY,4.05,6.60,21.0,776.00,278.3
2019-01-27,17:30:00,DRY,4.20,6.53,20.3,776.00,259.5
2019-01-27,17:35:00,DRY,3.80,6.40,21.0,776.00,239.7
2019-01-27,17:40:00,DRY,4.67,6.27,22.3,776.00,221.1
2019-01-27,17:45:00,DRY,4.05,5.55,26.0,776.00,202.8
2019-01-27,17:50:00,DRY,4.60,5.50,25.7,776.00,183.7
2019-01-27,17:55:00,DRY,5.00,5.50,26.0,776.00,167.1
2019-01-27,18:00:00,DRY,6.00,5.80,24.7,776.00,148.0
2019-01-27,18:05:00,DRY,5.40,5.75,25.0,776.00,128.6
2019-01-27,18:10:00,DRY,5.77,5.57,26.0,776.00,103.2
2019-01-27,18:15:00,DRY,6.50,5.75,25.0,776.00,79.2
2019-01-27,18:20:00,DRY,6.23,6.00,24.0,776.00,59.2
2019-01-27,18:25:00,DRY,5.60,6.05,23.5,776.00,42.1
2019-01-27,18:30:00,DRY,5.73,5.97,23.7,776.00,28.7
2019-01-27,18:35:00,DRY,5.60,5.90,24.0,776.00,18.2
2019-01-27,18:40:00,DRY,6.07,5.77,24.3,776.00,13.4
2019-01-27,18:45:00,DRY,6.35,5.85,23.5,776.00,10.2
2019-01-27,18:50:00,DRY,5.97,5.90,23.7,776.00,6.0
2019-01-27,18:55:00,DRY,6.85,5.75,23.0,776.00,3.5
2019-01-27,19:00:00,DRY,5.93,5.87,23.0,776.00,1.9
2019-01-27,19:05:00,DRY,5.35,5.65,23.5,776.00,1.1
2019-01-27,19:10:00,DRY,5.53,5.83,22.3,776.00,0.9
2019-01-27,19:15:00,DRY,5.80,6.00,21.5,776.00,1.1
2019-01-27,19:20:00,DRY,6.13,6.07,21.3,776.00,0.9
2019-01-27,19:25:00,DRY,5.25,5.95,21.5,776.00,1.0
2019-01-27,19:30:00,DRY,5.80,5.90,22.0,776.00,1.1
2019-01-27,19:35:00,DRY,5.55,6.00,21.0,776.00,1.1
2019-01-27,19:40:00,DRY,6.20,5.93,21.0,776.00,0.9
2019-01-27,19:45:00,DRY,6.10,5.30,22.5,776.00,1.6
2019-01-27,19:50:00,DRY,5.43,5.30,23.0,776.00,1.7
2019-01-27,19:55:00,DRY,6.30,5.30,23.0,776.00,1.1
2019-01-27,20:00:00,DRY,5.83,5.30,23.7,776.00,1.2
2019-01-27,20:05:00,DRY,6.20,5.20,23.5,776.00,1.2
2019-01-27,20:10:00,DRY,6.47,5.40,23.0,776.00,1.1
2019-01-27,20:15:00,DRY,5.75,5.45,22.5,776.00,1.1
2019-01-27,20:20:00,DRY,6.00,5.43,22.0,776.00,1.0
2019-01-27,20:25:00,DRY,6.35,5.55,23.0,776.00,1.2
2019-01-27,20:30:00,DRY,6.07,5.67,22.3,776.67,2.1
2019-01-27,20:35:00,DRY,7.50,5.45,21.5,776.50,1.0
2019-01-27,20:40:00,DRY,6.60,5.27,19.3,777.00,0.8
2019-01-27,20:45:00,DRY,7.75,5.10,17.5,777.00,1.3
2019-01-27,20:50:00,DRY,7.07,5.37,14.0,777.00,1.1
2019-01-27,20:55:00,DRY,7.65,5.45,14.5,777.00,1.2
2019-01-27,21:00:00,DRY,6.57,5.47,12.0,777.00,1.0
2019-01-27,21:05:00,DRY,6.30,5.55,14.0,777.00,1.4
2019-01-27,21:10:00,DRY,7.53,5.60,14.7,777.00,0.9
2019-01-27,21:15:00,DRY,8.20,5.60,14.0,777.00,1.1
2019-01-27,21:20:00,DRY,7.60,5.53,13.0,777.00,0.8
2019-01-27,21:25:00,DRY,8.00,5.60,14.0,777.00,1.8
2019-01-27,21:30:00,DRY,6.50,5.60,16.3,777.00,1.3
2019-01-27,21:35:00,DRY,7.30,5.65,19.0,777.00,2.1
2019-01-27,21:40:00,DRY,5.70,5.63,19.7,777.00,1.2
2019-01-27,21:45:00,DRY,5.95,5.60,20.5,777.00,0.9
2019-01-27,21:50:00,DRY,5.20,5.53,21.7,777.00,1.0
2019-01-27,21:55:00,DRY,6.25,5.50,21.5,777.00,0.9
2019-01-27,22:00:00,DRY,6.00,5.50,21.3,777.00,1.2
2019-01-27,22:05:00,DRY,5.75,5.40,21.0,777.00,1.1
2019-01-27,22:10:00,DRY,4.60,5.47,21.7,777.00,1.2
2019-01-27,22:15:00,DRY,5.35,5.55,20.5,777.00,1.1
2019-01-27,22:20:00,DRY,5.53,5.73,20.0,777.00,0.9
2019-01-27,22:25:00,DRY,4.85,5.95,19.5,777.00,0.5
2019-01-27,22:30:00,DRY,5.20,6.10,19.7,777.00,1.3
2019-01-27,22:35:00,DRY,5.05,6.15,20.0,777.50,1.2
2019-01-27,22:40:00,DRY,5.40,6.20,19.7,777.67,1.0
2019-01-27,22:45:00,DRY,3.45,6.35,20.0,777.50,0.9
2019-01-27,22:50:00,DRY,4.60,6.33,19.7,778.00,1.9
2019-01-27,22:55:00,DRY,4.60,6.45,19.0,778.00,1.0
2019-01-27,23:00:00,DRY,4.17,6.53,18.7,777.67,1.3
2019-01-27,23:05:00,DRY,4.55,6.65,18.0,778.00,1.4
2019-01-27,23:10:00,DRY,3.40,6.60,18.0,778.00,1.2
2019-01-27,23:15:00,DRY,5.05,6.65,17.5,778.00,1.0
2019-01-27,23:20:00,DRY,5.13,6.87,14.7,777.67,1.9
2019-01-27,23:25:00,DRY,5.45,6.95,14.0,778.00,1.8
2019-01-27,23:30:00,DRY,4.37,7.17,13.7,777.67,1.6
2019-01-27,23:35:00,DRY,4.30,7.20,13.0,778.00,1.8
2019-01-27,23:40:00,DRY,3.70,7.53,12.3,778.00,0.9
2019-01-27,23:45:00,DRY,4.00,7.55,12.0,778.00,1.1
2019-01-27,23:50:00,DRY,3.67,7.73,11.3,778.00,1.0
2019-01-27,23:55:00,DRY,4.10,7.80,11.0,778.00,1.3
2019-01-28,00:00:00,DRY,4.10,7.97,11.0,778.00,1.1
2019-01-28,00:05:00,DRY,2.95,8.35,11.0,778.00,0.7
2019-01-28,00:10:00,DRY,2.43,8.60,11.7,778.00,1.5
2019-01-28,00:15:00,DRY,1.70,8.35,10.5,778.00,1.1
2019-01-28,00:20:00,DRY,1.93,7.93,11.7,778.00,1.9
2019-01-28,00:25:00,DRY,2.20,8.45,10.5,778.00,2.0
2019-01-28,00:30:00,DRY,2.40,9.20,9.7,778.00,0.3
2019-01-28,00:35:00,DRY,2.40,9.15,10.0,778.00,1.4
2019-01-28,00:40:00,DRY,2.67,8.37,10.0,778.00,0.8
2019-01-28,00:45:00,DRY,3.45,8.10,10.5,778.00,1.4
2019-01-28,00:50:00,DRY,3.67,8.53,10.3,777.67,1.1
2019-01-28,00:55:00,DRY,3.55,9.15,10.0,778.00,1.1
2019-01-28,01:00:00,DRY,3.47,9.00,10.0,777.67,0.9
2019-01-28,01:05:00,DRY,4.00,8.95,10.0,777.50,1.4
2019-01-28,01:10:00,DRY,3.40,8.97,11.0,777.67,1.9
2019-01-28,01:15:00,DRY,3.80,8.05,12.5,777.00,1.2
2019-01-28,01:20:00,DRY,3.23,8.57,11.7,777.00,1.3
2019-01-28,01:25:00,DRY,3.90,8.70,11.0,777.00,1.1
2019-01-28,01:30:00,DRY,3.53,8.70,10.7,777.00,1.2
2019-01-28,01:35:00,DRY,3.00,8.85,10.0,777.00,1.5
2019-01-28,01:40:00,DRY,2.97,9.03,10.0,777.00,1.0
2019-01-28,01:45:00,DRY,2.95,9.05,10.0,777.50,2.0
2019-01-28,01:50:00,DRY,3.10,9.00,10.0,777.00,1.3
2019-01-28,01:55:00,DRY,3.75,8.90,10.0,777.00,1.5
2019-01-28,02:00:00,DRY,3.17,8.87,10.0,777.00,1.2
2019-01-28,02:05:00,DRY,2.50,8.95,10.0,777.00,0.6
2019-01-28,02:10:00,DRY,2.07,9.33,8.7,777.00,1.9
2019-01-28,02:15:00,DRY,1.75,9.60,8.0,777.00,1.3
2019-01-28,02:20:00,DRY,2.03,9.67,8.0,777.00,1.2
2019-01-28,02:25:00,DRY,1.85,9.85,7.5,777.00,1.2
2019-01-28,02:30:00,DRY,2.00,9.67,8.0,777.00,1.2
2019-01-28,02:35:00,DRY,2.35,9.55,7.5,777.00,0.9
2019-01-28,02:40:00,DRY,2.27,9.43,8.7,777.00,1.5
2019-01-28,02:45:00,DRY,2.55,9.05,9.0,777.00,1.1
2019-01-28,02:50:00,DRY,2.70,8.90,9.7,777.00,1.4
2019-01-28,02:55:00,DRY,1.95,8.85,9.5,777.00,1.2
2019-01-28,03:00:00,DRY,2.57,8.87,9.7,777.00,1.3
2019-01-28,03:05:00,DRY,1.75,9.30,9.0,777.00,2.1
2019-01-28,03:10:00,DRY,2.10,9.53,8.7,777.00,0.7
2019-01-28,03:15:00,DRY,1.70,9.45,9.0,777.00,0.5
2019-01-28,03:20:00,DRY,2.00,9.37,8.3,777.00,1.3
2019-01-28,03:25:00,DRY,2.35,9.35,8.0,777.00,0.5
2019-01-28,03:30:00,DRY,3.47,9.17,9.0,777.00,1.3
2019-01-28,03:35:00,DRY,3.70,8.95,9.0,777.00,1.2
2019-01-28,03:40:00,DRY,3.37,8.90,9.3,777.00,1.6
2019-01-28,03:45:00,DRY,2.85,8.75,9.5,777.00,1.0
2019-01-28,03:50:00,DRY,2.13,8.50,10.0,777.00,1.3
2019-01-28,03:55:00,DRY,2.40,8.40,10.0,777.00,1.6
2019-01-28,04:00:00,DRY,2.87,8.33,10.0,777.00,0.9
2019-01-28,04:05:00,DRY,3.50,8.45,10.0,777.00,0.8
2019-01-28,04:10:00,DRY,3.50,8.70,10.0,777.00,1.2
2019-01-28,04:15:00,DRY,3.70,8.90,9.5,777.00,1.2
2019-01-28,04:20:00,DRY,3.40,9.03,9.0,777.00,1.4
2019-01-28,04:25:00,DRY,2.75,9.00,9.0,777.00,1.2
2019-01-28,04:30:00,DRY,2.70,8.90,9.0,777.00,0.8
2019-01-28,04:35:00,DRY,2.85,9.00,9.0,777.00,1.4
2019-01-28,04:40:00,DRY,3.37,8.77,9.0,777.00,1.2
2019-01-28,04:45:00,DRY,2.90,8.85,9.0,777.00,1.4
2019-01-28,04:50:00,DRY,3.37,8.73,9.7,777.00,1.5
2019-01-28,04:55:00,DRY,3.60,8.85,9.0,777.00,1.9
2019-01-28,05:00:00,DRY,3.03,8.87,9.3,777.00,1.1
2019-01-28,05:05:00,DRY,3.30,8.70,9.5,777.00,1.2
2019-01-28,05:10:00,DRY,3.43,9.00,9.0,777.00,1.4
2019-01-28,05:15:00,DRY,3.10,8.90,9.0,777.00,0.7
2019-01-28,05:20:00,DRY,2.77,8.67,9.0,777.00,1.6
2019-01-28,05:25:00,DRY,3.45,8.70,9.0,777.00,1.2
2019-01-28,05:30:00,DRY,2.67,8.90,8.0,777.00,1.0
2019-01-28,05:35:00,DRY,2.70,9.05,7.5,777.00,0.9
2019-01-28,05:40:00,DRY,3.07,9.23,6.7,777.00,1.3
2019-01-28,05:45:00,DRY,2.45,9.50,6.0,777.00,1.3
2019-01-28,05:50:00,DRY,2.37,9.63,6.0,777.00,1.5
2019-01-28,05:55:00,DRY,1.80,9.40,6.5,777.00,0.2
2019-01-28,06:00:00,DRY,2.80,9.40,6.3,777.00,0.9
2019-01-28,06:05:00,DRY,2.90,9.50,7.0,777.00,0.8
2019-01-28,06:10:00,DRY,2.43,9.47,7.0,777.00,1.1
2019-01-28,06:15:00,DRY,2.65,9.15,7.0,777.00,1.1
2019-01-28,06:20:00,DRY,4.40,8.83,7.0,777.00,1.2
2019-01-28,06:25:00,DRY,4.35,8.75,7.0,777.00,1.3
2019-01-28,06:30:00,DRY,3.67,8.73,7.0,777.00,1.1
2019-01-28,06:35:00,DRY,4.55,8.70,7.0,777.00,1.1
2019-01-28,06:40:00,DRY,4.00,8.80,7.3,777.00,1.5
2019-01-28,06:45:00,DRY,3.25,8.85,6.0,777.00,0.8
2019-01-28,06:50:00,DRY,3.73,8.37,7.3,777.00,1.3
2019-01-28,06:55:00,DRY,4.10,8.05,7.5,777.00,1.6
2019-01-28,07:00:00,DRY,2.77,8.60,6.3,777.00,2.0
2019-01-28,07:05:00,DRY,2.70,8.50,7.0,777.00,0.8
2019-01-28,07:10:00,DRY,1.60,8.90,7.0,777.00,1.4
2019-01-28,07:15:00,DRY,2.15,8.90,7.0,777.00,0.7
2019-01-28,07:20:00,DRY,3.20,9.30,7.0,777.00,0.7
2019-01-28,07:25:00,DRY,3.20,9.50,7.5,777.00,1.4
2019-01-28,07:30:00,DRY,2.23,9.27,7.7,777.00,0.6
2019-01-28,07:35:00,DRY,2.05,8.70,8.0,777.00,1.9
2019-01-28,07:40:00,DRY,3.17,8.80,8.0,777.00,1.3
2019-01-28,07:45:00,DRY,2.00,8.95,7.5,777.00,1.8
2019-01-28,07:50:00,DRY,2.23,8.83,7.0,777.00,4.5
2019-01-28,07:55:00,DRY,1.85,9.05,7.0,777.00,10.1
2019-01-28,08:00:00,DRY,1.80,8.73,7.7,777.00,10.5
2019-01-28,08:05:00,DRY,1.60,8.85,7.0,777.00,12.4
2019-01-28,08:10:00,DRY,1.50,8.97,7.3,777.00,16.3
2019-01-28,08:15:00,DRY,1.55,9.35,7.0,777.00,19.6
2019-01-28,08:20:00,DRY,2.03,9.43,7.3,777.33,20.4
2019-01-28,08:25:00,DRY,1.55,9.10,8.0,777.50,20.1
2019-01-28,08:30:00,DRY,1.47,9.10,7.3,777.33,22.5
2019-01-28,08:35:00,DRY,1.55,9.60,7.0,778.00,26.5
2019-01-28,08:40:00,DRY,1.63,10.10,7.0,778.00,129.0
2019-01-28,08:45:00,DRY,2.45,10.20,7.0,778.00,168.2
2019-01-28,08:50:00,DRY,2.37,10.20,7.0,778.00,191.6
2019-01-28,08:55:00,DRY,1.90,10.30,7.0,778.00,216.6
2019-01-28,09:00:00,DRY,1.23,10.57,7.0,778.00,242.3
2019-01-28,09:05:00,DRY,2.05,10.65,7.0,778.00,269.9
2019-01-28,09:10:00,DRY,2.17,10.57,7.0,778.00,259.1
2019-01-28,09:15:00,DRY,2.05,10.55,7.0,778.00,288.0
2019-01-28,09:20:00,DRY,1.63,10.47,7.0,778.00,306.8
2019-01-28,09:25:00,DRY,2.35,10.40,7.0,778.00,346.7
2019-01-28,09:30:00,DRY,2.07,10.43,7.0,778.00,362.7
2019-01-28,09:35:00,DRY,2.40,10.45,7.0,778.00,370.8
2019-01-28,09:40:00,DRY,2.20,10.47,7.0,778.00,390.1
2019-01-28,09:45:00,DRY,1.60,10.05,8.0,778.00,381.5
2019-01-28,09:50:00,DRY,2.03,10.30,7.7,778.00,384.2
2019-01-28,09:55:00,DRY,2.20,10.70,7.5,778.00,415.3
2019-01-28,10:00:00,DRY,1.47,10.53,7.3,778.00,434.9
2019-01-28,10:05:00,DRY,1.75,10.75,7.5,778.00,460.9
2019-01-28,10:10:00,DRY,2.30,10.87,7.0,778.00,480.0
2019-01-28,10:15:00,DRY,3.00,10.80,7.5,778.00,500.4
2019-01-28,10:20:00,DRY,2.17,10.70,7.3,778.00,521.5
2019-01-28,10:25:00,DRY,1.15,10.75,8.0,778.00,537.9
2019-01-28,10:30:00,DRY,2.60,10.70,7.3,778.00,553.3
2019-01-28,10:35:00,DRY,2.50,10.80,7.5,778.00,567.5
2019-01-28,10:40:00,DRY,3.50,10.87,7.3,778.00,583.4
2019-01-28,10:45:00,DRY,3.40,10.60,8.5,778.00,596.5
2019-01-28,10:50:00,DRY,3.63,10.73,8.3,778.00,610.9
2019-01-28,10:55:00,DRY,2.50,10.75,9.0,778.00,622.8
2019-01-28,11:00:00,DRY,2.57,10.87,9.0,778.00,636.9
2019-01-28,11:05:00,DRY,2.60,10.80,9.5,778.00,649.3
2019-01-28,11:10:00,DRY,2.67,10.70,9.0,778.00,662.0
2019-01-28,11:15:00,DRY,2.20,11.00,10.5,778.00,674.2
2019-01-28,11:20:00,DRY,2.00,10.80,10.3,778.00,685.5
2019-01-28,11:25:00,DRY,2.95,10.75,10.0,778.00,697.1
2019-01-28,11:30:00,DRY,3.47,10.77,9.0,778.00,707.9
2019-01-28,11:35:00,DRY,3.70,10.90,9.5,778.00,717.7
2019-01-28,11:40:00,DRY,2.47,11.00,8.7,778.33,727.9
2019-01-28,11:45:00,DRY,3.65,11.00,9.0,778.00,737.0
2019-01-28,11:50:00,DRY,3.07,10.90,9.3,778.67,747.0
2019-01-28,11:55:00,DRY,4.00,11.05,9.0,779.00,754.8
2019-01-28,12:00:00,DRY,2.93,11.27,9.0,778.67,761.5
2019-01-28,12:05:00,DRY,3.40,11.20,8.0,779.00,769.8
2019-01-28,12:10:00,DRY,2.73,11.17,8.7,778.67,777.2
2019-01-28,12:15:00,DRY,2.85,11.35,9.0,778.00,783.9
2019-01-28,12:20:00,DRY,3.30,11.33,9.3,778.00,791.1
2019-01-28,12:25:00,DRY,3.50,11.25,8.5,778.00,795.6
2019-01-28,12:30:00,DRY,2.83,11.50,9.0,779.00,800.8
2019-01-28,12:35:00,DRY,2.45,11.55,9.5,779.00,805.2
2019-01-28,12:40:00,DRY,3.90,11.53,9.3,778.33,809.8
2019-01-28,12:45:00,DRY,2.95,11.55,10.0,778.50,813.2
2019-01-28,12:50:00,DRY,2.83,11.60,9.7,778.00,816.8
2019-01-28,12:55:00,DRY,2.75,11.70,9.5,778.00,819.4
2019-01-28,13:00:00,DRY,3.17,11.80,10.0,778.00,822.6
2019-01-28,13:05:00,DRY,2.85,11.80,9.0,778.00,824.0